Lambton Real Estate, NSW, 2299 Newcastle

Thinking about buying in Lambton? Now could not be a better time, with a whopping 3067 properties either residential or commercial there's certainly plenty to choose from.

The average property price for this area is $726,000 with prices in this suburb ranging from $280,000 to $7,903,000.

Distance to the coast is 4 Km.

Lambton Real Estate Market Outlook

Good balance between supply and demand ensures a range of affordable options within budget limits. Recent increases in listings may provide buying opportunities. In this area of average incomes, there is a mix of housing size and quality. While this may present buying opportunities, growth may be constrained. As buyers begin to examine Lambton due to other areas being out of the price range and the trend to working from home, "gentrification" may incease price growth. A mix of professions and above average income earners in Lambton provides good demand. The lower than average housing turnover of these people also means fewer regular listings leading to periodic large price increases. Medium density in Lambton necessitates a mix of lifestyle options for housing, shops, open areas, and facilties. Where this is available, demand is high and growth ensured. Higher than average industry presence in the wider area offering local employment yet with not a large negative impact on local amenity, provides good demand and price growth.

About

For Sale

Elders Real Estate 65 DICKSON ST, LAMBTON, NSW, 2299 4 2 1
Elders Real Estate 2 CHURCH ST, LAMBTON, NSW, 2299 3 2 1 $1.39M
First National 23 HOWE ST, LAMBTON, NSW, 2299 4 2 1 Auction - Guide $1,500,000 - $1,600,000
First National 85 YOUNG RD, LAMBTON, NSW, 2299 4 2 4 Auction - Guide $1,750,000 - $1,850,000

More

Local Schools


Lambton Public School

Lambton High School

St John's Primary School

(While the above schools are located with the suburb of Lambton there may also be nearby schools whose catchments cover this suburb)

Local Crime Stats


Average Local Climate by month


(mm)
RAIN
Min (°C)
TEMP
Max (°C)
TEMP
Min (%)
HUMIDITY
Max (%)
HUMIDITY
(m/sec)
WIND
(MJ/sq m)
SOLAR
Jan2.018.930.148.193.64.624.5
Feb3.318.628.352.794.54.220.7
Mar5.117.426.854.2954.116.6
Apr4.413.724.551.695.83.614.4
May2.610.021.049.393.84.011.3
Jun4.88.718.254.494.24.39.5
Jul2.36.818.346.191.94.510.8
Aug1.86.819.838.591.64.513.7
Sept2.09.423.037.092.54.318.2
Oct2.412.224.841.593.04.421.3
Nov2.515.526.946.893.74.424
Dec2.517.328.247.893.34.624.8

source: Australian Government Bureau of Meteorology

Recently Sold

12-05-2022 $407,000 5 / 5 HOWE ST LAMBTON 2299
10-05-2022 $2,000,000 25 HOWE ST LAMBTON 2299
10-05-2022 $1,500,000 34 TURNER ST LAMBTON 2299
02-05-2022 $375,000 3 / 5 HOWE ST LAMBTON 2299
13-04-2022 $535,000 1 / 35 ROBINSON AVE LAMBTON 2299
08-04-2022 $1,281,000 10 PRIDE AVE LAMBTON 2299
05-04-2022 $982,000 31 YOUNG RD LAMBTON 2299
04-04-2022 $640,000 5 / 20 CHURCH ST LAMBTON 2299
18-03-2022 $570,000 6 / 35 ROBINSON AVE LAMBTON 2299
18-03-2022 $600,000 2 / 5 BARELLAN ST LAMBTON 2299
11-03-2022 $810,000 2 / 118 DURHAM RD LAMBTON 2299
11-03-2022 $810,000 2 / 118 DURHAM RD LAMBTON 2299
08-03-2022 $810,000 11 KENDALL ST LAMBTON 2299
28-02-2022 $800,000 30 ORLANDO RD LAMBTON 2299
25-02-2022 $1,900,000 150 WOMBOIN RD LAMBTON 2299
21-02-2022 $500,000 119 DURHAM RD LAMBTON 2299
07-02-2022 $1,200,000 20 MOREHEAD ST LAMBTON 2299
07-02-2022 $1,675,000 4 FITZROY RD LAMBTON 2299
04-02-2022 $880,000 9 CONDOR CCT LAMBTON 2299
04-02-2022 $950,000 12 ROBERTS CCT LAMBTON 2299
02-02-2022 $788,000 58 CROUDACE ST LAMBTON 2299
24-01-2022 $1,550,000 2 FLORIDA AVE LAMBTON 2299
21-01-2022 $1,015,000 40 KENDALL ST LAMBTON 2299
13-01-2022 $790,000 48 CROUDACE ST LAMBTON 2299
12-01-2022 $1,400,000 33 MOREHEAD ST LAMBTON 2299
12-01-2022 $1,400,000 33 MOREHEAD ST LAMBTON 2299
12-01-2022 $1,400,000 33 MOREHEAD ST LAMBTON 2299
22-12-2021 $700,000 25 ROBINSON AVE LAMBTON 2299
20-12-2021 $1,100,000 8 REES WAY LAMBTON 2299
17-12-2021 $3,750,000 1 / 89 GRIFFITHS RD LAMBTON 2299
17-12-2021 $3,750,000 85 GRIFFITHS RD LAMBTON 2299
17-12-2021 $3,750,000 85 GRIFFITHS RD LAMBTON 2299
17-12-2021 $1,100,000 26 ILLALUNG RD LAMBTON 2299
14-12-2021 $900,000 29 YOUNG RD LAMBTON 2299
10-12-2021 $800,000 20 FLORIDA AVE LAMBTON 2299
01-12-2021 $1,200,000 41 CHILCOTT ST LAMBTON 2299
26-11-2021 $1,550,000 34 CHILCOTT ST LAMBTON 2299
26-11-2021 $322,000 7 / 441 NEWCASTLE RD LAMBTON 2299
16-11-2021 $1,190,000 2 PEARSON ST LAMBTON 2299
03-11-2021 $455,000 27 CROUDACE ST LAMBTON 2299
03-11-2021 $455,000 27 CROUDACE ST LAMBTON 2299
03-11-2021 $455,000 27 CROUDACE ST LAMBTON 2299
03-11-2021 $455,000 27 CROUDACE ST LAMBTON 2299
03-11-2021 $455,000 27 CROUDACE ST LAMBTON 2299
03-11-2021 $455,000 27 CROUDACE ST LAMBTON 2299
01-11-2021 $390,000 5 / 67 WOMBOIN RD LAMBTON 2299
26-10-2021 $790,000 6 CHILCOTT ST LAMBTON 2299
15-10-2021 $800,000 84 CROUDACE ST LAMBTON 2299
14-10-2021 $892,500 51 DE VITRE ST LAMBTON 2299
07-10-2021 $625,000 3 / 20 CHURCH ST LAMBTON 2299

Residz covers 12m+ Australian properties and brings together a wealth of data to give you a better understanding of an area. From crime and schools to bush fire, flood risk and more. Begin your search for properties for sale or learn more about where you currently reside. Residz is an exciting next-generation Real Estate platform getting better by the day!